[[{"header":{"parameterUnit":"m.s-1","parameterCategory":1,"la1":30.2991,"la2":30.254,"lo1":-89.0895,"lo2":-89.0444,"dy":0.0017,"dx":0.0017,"nx":28,"ny":28,"refTime":"2025-04-11T21:00:00:Z","depth":0,"parameterNumber":2,"parameterNumberName":"U-component_of_WINDS"},"data":[0,0,0,0,0,0,0,0,0,0,0,0,0,0,0,0,0,0,0,0,0,0,0,0,0,0,0,0,0,0,0,0,0,0,0,0,0,0,0,0,0,0,0,0,0,0,0,0,0,0,0,0,0,0,0,0,0,0,0.2232,0.2231,0,0.2156,0.2156,0.2155,0.2098,0.2098,0.2097,0.2097,0.202,0.2018,0.2016,0,0,0,0,0,0,0,0,0,0,0,0,0,0.2329,0.2328,0.2232,0.2231,0.223,0.2157,0.2156,0.2155,0.2098,0.2098,0.2097,0.2097,0.202,0.2018,0.2016,0,0,0,0,0,0,0,0,0,0,0,0,0,0.2274,0.2327,0.2232,0.2193,0.2189,0.2157,0.2156,0.2154,0.2098,0.2098,0.2097,0.2096,0.2021,0.2018,0.2016,0.2016,0,0,0.2009,0.2008,0,0,0,0,0,0,0,0,0.2277,0.227,0.22,0.2196,0.2191,0.2136,0.2161,0.2108,0.2099,0.2133,0.2097,0.2096,0.2059,0.2053,0.2041,0.2013,0.2009,0.2009,0.2007,0.2006,0.2005,0,0,0,0,0,0,0,0.2281,0.2273,0.2202,0.2199,0.2194,0.218,0.2171,0.2151,0.2101,0.213,0.2126,0.2117,0.2056,0.2043,0.2039,0.2008,0.2009,0.2006,0.2005,0.2004,0.1979,0.1979,0,0,0,0,0,0,0.2291,0.2277,0.2205,0.22,0.2233,0.2179,0.2169,0.2155,0.2101,0.2092,0.2118,0.2115,0.2048,0.2041,0.2036,0.2034,0.2006,0.2004,0.2002,0.1978,0.1979,0.198,0,0,0,0,0,0,0.2293,0.2285,0.2208,0.2237,0.2226,0.2178,0.2162,0.2153,0.214,0.2092,0.2083,0.2114,0.2047,0.2039,0.2022,0.203,0.2003,0.2001,0.1977,0.1978,0.1979,0.203,0,0,0,0,0,0,0.2296,0.2286,0.2285,0.2238,0.2225,0.2195,0.2163,0.2152,0.2136,0.2132,0.2086,0.2078,0.2046,0.2026,0.202,0.2027,0.1999,0.1976,0.1978,0.1979,0.2027,0.2032,0.2037,0,0,0,0,0,0.23,0.2302,0.2286,0.2277,0.2223,0.2196,0.2188,0.2152,0.2137,0.2136,0.2106,0.2079,0.203,0.2025,0.2017,0.2023,0.1975,0.1977,0.1979,0.2025,0.2031,0.2037,0,0,0,0,0,0,0.2352,0.2295,0.2276,0.2263,0.2235,0.2186,0.2184,0.2159,0.2134,0.2131,0.2087,0.2077,0.2065,0.2042,0.2037,0.2022,0.2,0.2,0.2037,0.2043,0.2048,0.2054,0.1997,0,0,0,0,0,0.2362,0.2344,0.2296,0.2289,0.2276,0.2233,0.2219,0.2193,0.2162,0.215,0.2118,0.2089,0.2067,0.2054,0.2031,0.2023,0.2013,0.2024,0.2029,0.2033,0.2034,0.203,0.2035,0.1985,0.1985,0.1985,0,0,0.2382,0.2349,0.2341,0.2299,0.2273,0.2257,0.2223,0.2206,0.2193,0.2147,0.2129,0.2105,0.207,0.2058,0.2051,0.2039,0.2046,0.2036,0.2039,0.2038,0.2033,0.2038,0.2042,0.1986,0.1986,0.1986,0,0,0.2411,0.2384,0.2376,0.2352,0.2315,0.2286,0.2284,0.224,0.2222,0.2203,0.2169,0.2153,0.2116,0.2093,0.2077,0.2098,0.2073,0.2092,0.2118,0.2115,0.2119,0.2122,0.2131,0.2135,0.2093,0.2093,0.2093,0,0.2441,0.2414,0.2375,0.2361,0.2344,0.2302,0.2294,0.2272,0.223,0.2219,0.2206,0.216,0.2133,0.2116,0.2122,0.2109,0.2107,0.2097,0.2122,0.2124,0.2127,0.2135,0.2139,0.2096,0.2096,0.2095,0.2095,0,0.2454,0.2436,0.2434,0.2395,0.2377,0.2366,0.2326,0.2314,0.229,0.2263,0.2246,0.2212,0.2182,0.2176,0.2152,0.2156,0.215,0.213,0.2107,0.2135,0.2142,0.2145,0.21,0.2099,0.2098,0.2097,0,0,0.2513,0.2453,0.2453,0.2435,0.2391,0.2377,0.2365,0.2336,0.2327,0.2299,0.2288,0.2259,0.224,0.2221,0.2195,0.2192,0.2213,0.2172,0.217,0.2182,0.2217,0.2234,0.2238,0.2196,0.2196,0.2197,0.222,0,0.2536,0.2512,0.2477,0.2464,0.2448,0.2408,0.2398,0.237,0.2345,0.2328,0.23,0.2281,0.2257,0.2245,0.2241,0.2211,0.222,0.2209,0.2187,0.2186,0.2198,0.2241,0.2258,0.2282,0.2223,0.2223,0.2224,0,0.2559,0.2535,0.2521,0.248,0.2472,0.2463,0.2434,0.2418,0.2387,0.2369,0.2349,0.232,0.2306,0.2285,0.2266,0.2259,0.2248,0.2233,0.2233,0.223,0.2207,0.2241,0.2289,0.2293,0.2227,0.2227,0.2227,0,0.2606,0.2569,0.2556,0.2542,0.2493,0.2488,0.2468,0.2435,0.2421,0.2396,0.2387,0.2361,0.2347,0.2328,0.2293,0.2281,0.2279,0.2254,0.2264,0.2265,0.2266,0.2267,0.2314,0.2257,0.2257,0.2257,0.2257,0,0.2635,0.2629,0.2576,0.2568,0.256,0.252,0.2514,0.2489,0.2461,0.2449,0.2413,0.2402,0.2357,0.2341,0.2314,0.2303,0.2297,0.2283,0.2276,0.2286,0.2288,0.2279,0.2277,0.2258,0.2258,0.2258,0.2258,0,0.2686,0.265,0.2634,0.259,0.2579,0.2575,0.2537,0.2529,0.2502,0.2487,0.2481,0.2439,0.2419,0.2382,0.2351,0.2333,0.2328,0.2316,0.2339,0.2335,0.2348,0.2348,0.2392,0.2396,0.2336,0.2337,0.2337,0,0.2708,0.2702,0.2657,0.2646,0.2628,0.261,0.2596,0.2556,0.2543,0.2507,0.2504,0.248,0.246,0.243,0.2397,0.2373,0.2361,0.2378,0.2357,0.2368,0.2362,0.2364,0.2364,0.2383,0.2384,0.2384,0.2385,0,0.2751,0.2734,0.2714,0.2688,0.2672,0.265,0.2626,0.2619,0.2575,0.2561,0.254,0.2525,0.2494,0.2472,0.2444,0.2423,0.2398,0.2392,0.2393,0.2404,0.2419,0.2413,0.2353,0.2391,0.239,0.239,0.239,0.2389,0.2788,0.2781,0.275,0.2729,0.2707,0.2686,0.2677,0.2649,0.2631,0.2603,0.2581,0.2562,0.2532,0.2492,0.2473,0.2458,0.2446,0.2448,0.2448,0.245,0.2455,0.2421,0.2453,0.2453,0.2453,0.2452,0.2452,0,0.283,0.2808,0.279,0.2758,0.2742,0.2719,0.2692,0.268,0.2664,0.2638,0.2619,0.2596,0.2575,0.2541,0.2517,0.2512,0.25,0.2507,0.2508,0.2504,0.2466,0.2468,0.2518,0.2518,0.2518,0.2518,0.2518,0.2518,0.285,0.2839,0.2818,0.2796,0.2774,0.2755,0.2742,0.2723,0.2702,0.2678,0.266,0.2638,0.2609,0.2584,0.2564,0.2554,0.2548,0.256,0.2547,0.2512,0.2506,0.2501,0.2502,0.2559,0.2559,0.2586,0.2586,0.2587]},{"header":{"parameterUnit":"m.s-1","parameterCategory":1,"la1":30.2991,"la2":30.254,"lo1":-89.0895,"lo2":-89.0444,"dy":0.0017,"dx":0.0017,"nx":28,"ny":28,"refTime":"2025-04-11T21:00:00:Z","depth":0,"parameterNumber":3,"parameterNumberName":"V-component_of_WINDS"},"data":[0,0,0,0,0,0,0,0,0,0,0,0,0,0,0,0,0,0,0,0,0,0,0,0,0,0,0,0,0,0,0,0,0,0,0,0,0,0,0,0,0,0,0,0,0,0,0,0,0,0,0,0,0,0,0,0,0,0,-3.3217,-3.3218,0,-3.3314,-3.3315,-3.3316,-3.3271,-3.3268,-3.3266,-3.3264,-3.336,-3.3364,-3.3369,0,0,0,0,0,0,0,0,0,0,0,0,0,-3.2989,-3.2993,-3.3217,-3.3218,-3.322,-3.3314,-3.3315,-3.3317,-3.3271,-3.3268,-3.3265,-3.3263,-3.3358,-3.3364,-3.3369,0,0,0,0,0,0,0,0,0,0,0,0,0,-3.3087,-3.2995,-3.3217,-3.3208,-3.3209,-3.3314,-3.3315,-3.3317,-3.3272,-3.3268,-3.3265,-3.3261,-3.3356,-3.3363,-3.337,-3.3488,0,0,-3.3392,-3.3396,0,0,0,0,0,0,0,0,-3.3082,-3.3096,-3.3208,-3.3209,-3.321,-3.3277,-3.327,-3.3374,-3.3273,-3.3248,-3.3264,-3.3259,-3.3335,-3.3343,-3.337,-3.3493,-3.3497,-3.3393,-3.3397,-3.3401,-3.3403,0,0,0,0,0,0,0,-3.3075,-3.3091,-3.3255,-3.321,-3.3211,-3.3198,-3.3208,-3.329,-3.331,-3.325,-3.3247,-3.3259,-3.3334,-3.3363,-3.3372,-3.3498,-3.3393,-3.3399,-3.3404,-3.3407,-3.3723,-3.3727,0,0,0,0,0,0,-3.3069,-3.3086,-3.3252,-3.3258,-3.3135,-3.3206,-3.3217,-3.3259,-3.331,-3.3314,-3.3262,-3.3256,-3.3352,-3.3363,-3.3375,-3.3516,-3.34,-3.3407,-3.3411,-3.3719,-3.3724,-3.3728,0,0,0,0,0,0,-3.3064,-3.3084,-3.3248,-3.3171,-3.3191,-3.3214,-3.3261,-3.3263,-3.3291,-3.3319,-3.3322,-3.3287,-3.335,-3.3365,-3.3461,-3.3519,-3.3411,-3.3417,-3.3714,-3.372,-3.3726,-3.38,0,0,0,0,0,0,-3.3058,-3.3083,-3.3129,-3.3173,-3.3196,-3.3334,-3.3265,-3.3267,-3.3304,-3.3298,-3.3344,-3.3348,-3.3348,-3.345,-3.3468,-3.3527,-3.3423,-3.3709,-3.3717,-3.3724,-3.3793,-3.3808,-3.3821,0,0,0,0,0,-3.305,-3.3145,-3.3131,-3.3152,-3.3254,-3.3337,-3.335,-3.335,-3.3309,-3.3355,-3.3373,-3.3346,-3.351,-3.346,-3.348,-3.3542,-3.3705,-3.3715,-3.3723,-3.3786,-3.3805,-3.3821,0,0,0,0,0,0,-3.3106,-3.3151,-3.3136,-3.3248,-3.329,-3.333,-3.3387,-3.337,-3.3423,-3.3414,-3.341,-3.3421,-3.3521,-3.3541,-3.3485,-3.3659,-3.3601,-3.3615,-3.3642,-3.366,-3.3674,-3.3667,-3.3429,0,0,0,0,0,-3.3132,-3.3197,-3.3232,-3.3328,-3.335,-3.3365,-3.3402,-3.3398,-3.344,-3.3457,-3.3481,-3.3522,-3.3583,-3.3622,-3.368,-3.3795,-3.3804,-3.3848,-3.3862,-3.3874,-3.3885,-3.3947,-3.3967,-3.3758,-3.3758,-3.3758,0,0,-3.3185,-3.3217,-3.3259,-3.334,-3.3372,-3.3438,-3.338,-3.3453,-3.3502,-3.3467,-3.356,-3.358,-3.3625,-3.3731,-3.3779,-3.3751,-3.3945,-3.3885,-3.3894,-3.39,-3.3959,-3.3978,-3.3996,-3.3764,-3.3763,-3.3762,0,0,-3.3316,-3.3348,-3.3431,-3.3464,-3.3513,-3.3523,-3.3543,-3.3586,-3.3598,-3.3691,-3.3666,-3.3724,-3.3828,-3.3862,-3.3892,-3.4036,-3.4014,-3.4055,-3.4129,-3.419,-3.4206,-3.4221,-3.4272,-3.429,-3.4066,-3.4067,-3.4067,0,-3.3376,-3.3477,-3.3476,-3.3552,-3.3588,-3.356,-3.3644,-3.3676,-3.374,-3.3765,-3.3733,-3.3864,-3.3892,-3.4006,-3.4041,-3.4067,-3.4089,-3.4049,-3.4204,-3.4219,-3.4232,-3.4281,-3.43,-3.4071,-3.4071,-3.407,-3.407,0,-3.3548,-3.3618,-3.3679,-3.3744,-3.3787,-3.3866,-3.3876,-3.3919,-3.3912,-3.3925,-3.4019,-3.4053,-3.4116,-3.4143,-3.4135,-3.4255,-3.4236,-3.4205,-3.4146,-3.4257,-3.4302,-3.4321,-3.4078,-3.4076,-3.4075,-3.4074,0,0,-3.3717,-3.378,-3.3803,-3.3832,-3.3884,-3.3937,-3.4015,-3.4078,-3.4115,-3.416,-3.4225,-3.4314,-3.4285,-3.432,-3.4316,-3.4369,-3.4481,-3.4331,-3.4332,-3.4357,-3.4614,-3.4637,-3.4659,-3.4466,-3.447,-3.4472,-3.461,0,-3.3852,-3.3989,-3.399,-3.4116,-3.418,-3.4155,-3.4223,-3.4261,-3.4275,-3.4331,-3.4346,-3.4409,-3.4366,-3.4387,-3.4439,-3.4456,-3.4532,-3.4446,-3.4524,-3.4527,-3.4514,-3.4682,-3.4707,-3.4835,-3.4627,-3.4631,-3.4633,0,-3.4027,-3.408,-3.4212,-3.4255,-3.4282,-3.4343,-3.4401,-3.4455,-3.4497,-3.4504,-3.4543,-3.4531,-3.4609,-3.4549,-3.4655,-3.4597,-3.4629,-3.4642,-3.4647,-3.4654,-3.4586,-3.4693,-3.4876,-3.4895,-3.4661,-3.4658,-3.4656,0,-3.4137,-3.4241,-3.4333,-3.4359,-3.4411,-3.4454,-3.4478,-3.4517,-3.4555,-3.4605,-3.4629,-3.4687,-3.4719,-3.4764,-3.4767,-3.4724,-3.4874,-3.4815,-3.4881,-3.4881,-3.4913,-3.4911,-3.5103,-3.4935,-3.4935,-3.4934,-3.4934,0,-3.4287,-3.4369,-3.4383,-3.444,-3.4531,-3.4531,-3.4621,-3.464,-3.4675,-3.4735,-3.4716,-3.4772,-3.4774,-3.4831,-3.4834,-3.4921,-3.4935,-3.4942,-3.4942,-3.4943,-3.4943,-3.4964,-3.4955,-3.4939,-3.4938,-3.4937,-3.4936,0,-3.4425,-3.4438,-3.4537,-3.4579,-3.4591,-3.4656,-3.4691,-3.4744,-3.4757,-3.4832,-3.485,-3.4869,-3.4935,-3.4943,-3.502,-3.5022,-3.5126,-3.5117,-3.5112,-3.5111,-3.5176,-3.517,-3.5388,-3.5417,-3.5231,-3.5232,-3.5234,0,-3.4519,-3.4582,-3.4631,-3.467,-3.4696,-3.4759,-3.4798,-3.48,-3.4841,-3.4895,-3.4942,-3.5006,-3.5058,-3.5164,-3.5184,-3.5242,-3.5233,-3.5306,-3.5242,-3.5241,-3.5234,-3.523,-3.5235,-3.5318,-3.532,-3.5322,-3.5323,0,-3.4686,-3.469,-3.4747,-3.4807,-3.4854,-3.4901,-3.4945,-3.4978,-3.4986,-3.5032,-3.51,-3.514,-3.5219,-3.5283,-3.534,-3.5363,-3.5344,-3.5343,-3.5362,-3.5364,-3.5358,-3.5361,-3.5146,-3.5338,-3.5337,-3.5336,-3.5335,-3.5334,-3.4805,-3.4859,-3.4902,-3.4967,-3.5,-3.5042,-3.5095,-3.5114,-3.5171,-3.5236,-3.5234,-3.5308,-3.5348,-3.5424,-3.5451,-3.5508,-3.5484,-3.5511,-3.5517,-3.5524,-3.553,-3.535,-3.5519,-3.5518,-3.5518,-3.5517,-3.5517,0,-3.497,-3.4997,-3.5056,-3.5119,-3.5169,-3.5149,-3.5197,-3.524,-3.5306,-3.5346,-3.5397,-3.5475,-3.5537,-3.5562,-3.5622,-3.5663,-3.5655,-3.5678,-3.5675,-3.568,-3.5548,-3.5526,-3.5683,-3.5683,-3.5683,-3.5683,-3.5683,-3.5683,-3.5062,-3.5153,-3.5162,-3.5268,-3.5294,-3.5368,-3.5397,-3.5435,-3.5467,-3.5554,-3.5606,-3.5622,-3.5656,-3.5718,-3.5773,-3.5779,-3.5802,-3.5828,-3.583,-3.5706,-3.5689,-3.5673,-3.5653,-3.5833,-3.5833,-3.5957,-3.5958,-3.5959]}]]